Weather History for K1A6 - July, 2013

Change the Weather History Date:

Sunday, July 14, 2013

  Actual Average (KLOZ) Record (KLOZ)
Temperature  
Mean Temperature 75 °F 76 °F  
Max Temperature 86 °F 87 °F 96 °F (1966)
Min Temperature 64 °F 66 °F 52 °F (1964)
Degree Days  
Heating Degree Days 0 0  
Month to date heating degree days 0  
Since 1 June heating degree days 9  
Since 1 July heating degree days 0  
Cooling Degree Days 10 11  
Month to date cooling degree days 154  
Growing Degree Days 25 (Base 50)    
Moisture  
Dew Point 67 °F    
Average Humidity 76    
Maximum Humidity 98    
Minimum Humidity 56    
Precipitation  
Precipitation 0.00 in 0.13 in 3.88 in (2014)
Month to date precipitation 1.84  
Sea Level Pressure  
Sea Level Pressure 30.20 in    
Wind  
Wind Speed 2 mph (ESE)    
Max Wind Speed 14 mph    
Max Gust Speed 20 mph    
Visibility 10 miles    
Events      
T = Trace of Precipitation, MM = Missing Value Source: NWS Daily Summary

Daily Weather History Graph

Daily Weather History Graph

Search for Another Location

Airport or City:

Trip Planner

Search our weather history database for the weather conditions in past years. The results will help you decide how hot, cold, wet, or windy it might be!

Date:

Astronomy

Jul. 14, 2013 Rise Set
Actual Time 5:27 AM CDT 7:53 PM CDT
Civil Twilight 4:57 AM CDT 8:23 PM CDT
Nautical Twilight 4:20 AM CDT 9:00 PM CDT
Astronomical Twilight 3:40 AM CDT 9:40 PM CDT
Moon 11:31 AM CDT (7/14) 11:17 PM CDT (7/14)
Length of Visible Light 15h 25m
Length of Day
14h 26m
Waxing Crescent, 35% of the Moon is Illuminated
Jul 14
Waxing Crescent
Jul 15
First Quarter
Jul 22
Full
Jul 29
Last Quarter
Aug 6
New

Hourly Weather History & Observations

Time (CDT) Temp. Heat Index Dew Point Humidity Pressure Visibility Wind Dir Wind Speed Gust Speed Precip Events Conditions
12:15 AM 68.0 °F - 65.8 °F 93% 30.14 in 10.0 mi Calm Calm - N/A   Clear
12:35 AM 68.0 °F - 65.8 °F 93% 30.14 in 10.0 mi Calm Calm - N/A   Clear
12:55 AM 68.0 °F - 65.5 °F 92% 30.13 in 10.0 mi Calm Calm - N/A   Clear
1:15 AM 66.9 °F - 65.3 °F 95% 30.13 in 10.0 mi WNW 3.5 mph - N/A   Clear
1:35 AM 66.6 °F - 65.1 °F 95% 30.13 in 10.0 mi Calm Calm - N/A   Clear
1:55 AM 67.1 °F - 64.8 °F 92% 30.14 in 10.0 mi Calm Calm - N/A   Clear
2:15 AM 67.5 °F - 64.6 °F 90% 30.14 in 10.0 mi Calm Calm - N/A   Scattered Clouds
2:35 AM 66.6 °F - 64.4 °F 93% 30.13 in 10.0 mi Calm Calm - N/A   Scattered Clouds
2:55 AM 67.1 °F - 64.4 °F 91% 30.13 in 10.0 mi Calm Calm - N/A   Scattered Clouds
3:15 AM 65.7 °F - 64.6 °F 96% 30.13 in 10.0 mi Calm Calm - N/A   Clear
3:35 AM 66.2 °F - 64.4 °F 94% 30.13 in 10.0 mi Calm Calm - N/A   Clear
3:55 AM 66.2 °F - 64.2 °F 93% 30.14 in 10.0 mi WNW 3.5 mph - N/A   Clear
4:15 AM 66.2 °F - 64.2 °F 93% 30.15 in 10.0 mi Calm Calm - N/A   Clear
4:35 AM 65.3 °F - 64.0 °F 96% 30.16 in 10.0 mi Calm Calm - N/A   Clear
4:55 AM 65.1 °F - 64.0 °F 96% 30.16 in 10.0 mi Calm Calm - N/A   Clear
5:15 AM 65.1 °F - 64.0 °F 96% 30.17 in 10.0 mi Calm Calm - N/A   Clear
5:35 AM 64.8 °F - 63.9 °F 97% 30.17 in 10.0 mi Calm Calm - N/A   Clear
5:55 AM 64.6 °F - 63.7 °F 97% 30.18 in 10.0 mi Calm Calm - N/A   Scattered Clouds
6:15 AM 64.6 °F - 63.9 °F 98% 30.19 in 10.0 mi Calm Calm - N/A   Clear
6:35 AM 65.3 °F - 64.4 °F 97% 30.19 in 10.0 mi Calm Calm - N/A   Clear
6:55 AM 66.2 °F - 64.6 °F 94% 30.20 in 10.0 mi Calm Calm - N/A   Mostly Cloudy
7:15 AM 67.1 °F - 64.8 °F 92% 30.20 in 10.0 mi Calm Calm - N/A   Mostly Cloudy
7:35 AM 68.2 °F - 65.5 °F 91% 30.21 in 10.0 mi Calm Calm - N/A   Scattered Clouds
7:55 AM 70.9 °F - 66.9 °F 87% 30.22 in 10.0 mi Calm Calm - N/A   Mostly Cloudy
8:15 AM 72.1 °F - 67.8 °F 86% 30.22 in 10.0 mi Calm Calm - N/A   Mostly Cloudy
8:35 AM 73.9 °F - 67.8 °F 81% 30.22 in 10.0 mi Calm Calm - N/A   Scattered Clouds
8:55 AM 74.5 °F - 68.5 °F 82% 30.22 in 10.0 mi Calm Calm - N/A   Drizzle
9:15 AM 76.5 °F - 69.1 °F 78% 30.22 in 10.0 mi Calm Calm - N/A   Scattered Clouds
9:35 AM 77.2 °F - 69.3 °F 76% 30.22 in 10.0 mi Calm Calm - N/A   Mostly Cloudy
9:55 AM 78.3 °F - 69.1 °F 73% 30.22 in 10.0 mi Calm Calm - N/A   Overcast
10:15 AM 79.5 °F - 69.4 °F 71% 30.22 in 10.0 mi South 3.5 mph - N/A   Mostly Cloudy
10:35 AM 80.4 °F 83.5 °F 69.4 °F 69% 30.22 in 10.0 mi SSE 3.5 mph - N/A   Mostly Cloudy
10:55 AM 82.0 °F 85.9 °F 70.2 °F 67% 30.22 in 10.0 mi East 5.8 mph - N/A   Overcast
11:15 AM 83.8 °F 87.5 °F 68.9 °F 61% 30.22 in 10.0 mi ESE 3.5 mph - N/A   Mostly Cloudy
11:35 AM 84.2 °F 87.6 °F 68.5 °F 59% 30.22 in 10.0 mi East 4.6 mph - N/A   Mostly Cloudy
11:55 AM 85.1 °F 89.1 °F 69.4 °F 59% 30.22 in 10.0 mi SE 6.9 mph - N/A   Mostly Cloudy
12:15 PM 84.9 °F 88.2 °F 68.4 °F 57% 30.22 in 10.0 mi SSE 6.9 mph - N/A   Mostly Cloudy
12:35 PM 85.8 °F 89.4 °F 68.5 °F 56% 30.21 in 10.0 mi ESE 3.5 mph - N/A   Mostly Cloudy
12:55 PM 84.9 °F 88.5 °F 68.7 °F 58% 30.21 in 10.0 mi ESE 5.8 mph - N/A   Overcast
1:15 PM 82.6 °F 86.6 °F 70.2 °F 66% 30.22 in 10.0 mi East 13.8 mph 19.6 mph N/A   Overcast
1:35 PM 82.2 °F 86.0 °F 69.8 °F 66% 30.22 in 10.0 mi ESE 9.2 mph - N/A   Mostly Cloudy
1:55 PM 84.2 °F 88.7 °F 70.5 °F 63% 30.22 in 10.0 mi East 5.8 mph - N/A   Scattered Clouds
2:15 PM 84.4 °F 89.7 °F 71.4 °F 65% 30.21 in 10.0 mi East 4.6 mph - N/A   Scattered Clouds
2:35 PM 85.5 °F 90.8 °F 70.9 °F 62% 30.21 in 10.0 mi ESE 4.6 mph - N/A   Mostly Cloudy
2:55 PM 86.5 °F 91.0 °F 69.4 °F 57% 30.21 in 10.0 mi SE 5.8 mph - N/A   Mostly Cloudy
3:15 PM 85.8 °F 90.1 °F 69.6 °F 58% 30.20 in 10.0 mi East 9.2 mph - N/A   Mostly Cloudy
3:35 PM 84.2 °F 88.1 °F 69.6 °F 61% 30.21 in 10.0 mi ESE 9.2 mph - N/A   Mostly Cloudy
3:55 PM 82.6 °F 86.1 °F 69.3 °F 64% 30.21 in 10.0 mi East 6.9 mph - N/A   Mostly Cloudy
4:15 PM 83.1 °F 86.3 °F 68.4 °F 61% 30.21 in 10.0 mi ESE 6.9 mph - N/A   Scattered Clouds
4:35 PM 83.5 °F 86.4 °F 68.0 °F 59% 30.21 in 10.0 mi SE 4.6 mph - N/A   Scattered Clouds
4:55 PM 82.8 °F 86.0 °F 68.4 °F 62% 30.21 in 10.0 mi ESE 5.8 mph - N/A   Clear
5:15 PM 82.4 °F 85.2 °F 67.6 °F 61% 30.20 in 10.0 mi ESE 8.1 mph 16.1 mph N/A   Clear
5:35 PM 83.1 °F 85.9 °F 67.6 °F 59% 30.20 in 10.0 mi ESE 6.9 mph - N/A   Clear
5:55 PM 82.8 °F 85.3 °F 66.9 °F 59% 30.20 in 10.0 mi SE 5.8 mph - N/A   Clear
6:15 PM 82.6 °F 85.1 °F 66.7 °F 59% 30.21 in 10.0 mi SSE 8.1 mph - N/A   Clear
6:35 PM 81.1 °F 83.2 °F 66.2 °F 60% 30.22 in 10.0 mi ESE 6.9 mph - N/A   Clear
6:55 PM 80.1 °F 82.2 °F 66.4 °F 63% 30.23 in 10.0 mi SE 5.8 mph - N/A   Scattered Clouds
7:15 PM 79.5 °F - 66.4 °F 64% 30.23 in 10.0 mi SE 5.8 mph - N/A   Scattered Clouds
7:35 PM 79.0 °F - 66.4 °F 65% 30.23 in 10.0 mi ENE 4.6 mph - N/A   Clear
7:55 PM 78.3 °F - 65.7 °F 65% 30.23 in 10.0 mi East 4.6 mph - N/A   Clear
8:15 PM 78.4 °F - 64.4 °F 62% 30.24 in 10.0 mi East 4.6 mph - N/A   Clear
8:35 PM 78.3 °F - 63.5 °F 60% 30.24 in 10.0 mi Calm Calm - N/A   Clear
8:55 PM 78.1 °F - 63.3 °F 60% 30.25 in 10.0 mi Calm Calm - N/A   Clear
9:15 PM 77.4 °F - 63.7 °F 63% 30.25 in 10.0 mi Calm Calm - N/A   Clear
9:35 PM 74.5 °F - 65.5 °F 73% 30.26 in 10.0 mi Calm Calm - N/A   Clear
9:55 PM 75.9 °F - 64.0 °F 67% 30.27 in 10.0 mi ESE 9.2 mph - N/A   Clear
10:15 PM 75.9 °F - 64.2 °F 67% 30.27 in 10.0 mi Calm Calm - N/A   Clear
10:35 PM 75.2 °F - 64.6 °F 69% 30.27 in 10.0 mi Calm Calm - N/A   Clear
10:55 PM 71.8 °F - 65.3 °F 80% 30.28 in 10.0 mi Calm Calm - N/A   Clear
11:15 PM 70.7 °F - 65.3 °F 83% 30.28 in 10.0 mi Calm Calm - N/A   Clear
11:35 PM 70.2 °F - 65.5 °F 85% 30.28 in 10.0 mi Calm Calm - N/A   Clear
11:55 PM 70.0 °F - 65.3 °F 85% 30.28 in 10.0 mi Calm Calm - N/A   Clear